Powrót do katalogu

SL-16 DEB

AktywnyLEO
NORAD 39718·DEBRIS·🇷🇺 Russia

Wystrzelony Dec 25, 1992 z Baikonur Cosmodrome

Loading…

Następne Przeloty (najbliższe 24 godziny)

TLE

ŚwieżeSource: Space-Track

Epoka: Sep 14, 2026, 02:56 UTC

1 39718U 92093KJ  26257.12287192  .00003858  00000-0  81203-3 0  9996
2 39718  71.1844  31.4336 0026901 352.0204   8.0511 14.59912495652354

Śledź SL-16 DEB w czasie rzeczywistym z AllMySat

Download on the App Store